Regional Weather Roundup
Issued by NWS

Home | Current Version | Previous Version | Graphics & Text | Print | Product List | Glossary On
Versions: 1 2 3 4 5 6 7 8 9 10 11 12 13 14 15 16 17 18 19 20 21 22 23 24 25 26 27 28 29 30 31 32 33 34 35 36 37 38 39 40 41 42 43 44 45 46 47 48 49 50
000
ASUS43 KMKX 060011
RWRWI

WISCONSIN REGIONAL WEATHER ROUNDUP
NATIONAL WEATHER SERVICE MILWAUKEE/SULLIVAN WI
700 PM CDT THU MAY 05 2016

NOTE: "FAIR" INDICATES FEW OR NO CLOUDS BELOW 12,000 FEET WITH NO
SIGNIFICANT WEATHER AND/OR OBSTRUCTIONS TO VISIBILITY.

WIZ001-002-006>008-014>016-023>028-060100-
NORTHWEST WISCONSIN

CITY           SKY/WX    TMP DP  RH WIND       PRES   REMARKS
SUPERIOR ARPT  SUNNY     79  41  25 W14G20    29.78F
6HR MIN TEMP:  68; 6HR MAX TEMP:  81;

ASHLAND        SUNNY     73  39  29 SW10      29.84F
6HR MIN TEMP:  69; 6HR MAX TEMP:  76;

HAYWARD        SUNNY     70  37  29 SW10      29.89S
6HR MIN TEMP:  64; 6HR MAX TEMP:  71;

SIREN          SUNNY     74  35  24 SW10      29.87F
6HR MIN TEMP:  58; 6HR MAX TEMP:  75;

CUMBERLAND     SUNNY     68  34  28 S8        29.90F
RICE LAKE      SUNNY     70  36  28 SW7       29.92S
6HR MIN TEMP:  63; 6HR MAX TEMP:  70;

CHETEK         SUNNY     68  41  37 S6        29.92S
6HR MIN TEMP:  63; 6HR MAX TEMP:  70;

LADYSMITH      MOSUNNY   64  39  39 SW6       29.93S
6HR MIN TEMP:  63; 6HR MAX TEMP:  69;

EAU CLAIRE     MOSUNNY   69  38  32 S5        29.93F
6HR MIN TEMP:  63; 6HR MAX TEMP:  70;

MENOMONIE      SUNNY     71  37  28 S7        29.91F
6HR MIN TEMP:  64; 6HR MAX TEMP:  73;

NEW RICHMOND   SUNNY     72  36  27 SW7       29.90F
6HR MIN TEMP:  56; 6HR MAX TEMP:  73; 6HR PCP:  0.01;

OSCEOLA        SUNNY     74  38  27 SW9       29.91F
6HR MIN TEMP:  63; 6HR MAX TEMP:  76;

$$

WIZ003>005-009-010-017-018-060100-
NORTH CENTRAL WISCONSIN

CITY           SKY/WX    TMP DP  RH WIND       PRES   REMARKS
MANITOWISH WTR CLOUDY    66  39  37 SW5       29.89F
6HR MIN TEMP:  62; 6HR MAX TEMP:  69;

ARBOR VITAE    CLOUDY    63  38  39 W3        29.91S
6HR MIN TEMP:  62; 6HR MAX TEMP:  69;

WOODRUFF       CLOUDY    63  38  39 W3        29.91S
6HR MIN TEMP:  62; 6HR MAX TEMP:  69;

RHINELANDER    SUNNY     66  37  34 W10       29.92R
6HR MIN TEMP:  62; 6HR MAX TEMP:  69;

EAGLE RIVER    SUNNY     65  32  28 SW7       29.89F
LAND O LAKES   SUNNY     67  33  27 SW6       29.90S
6HR MIN TEMP:  63; 6HR MAX TEMP:  69;

PHILLIPS       PTSUNNY   64  39  39 SW9       29.89F
6HR MIN TEMP:  60; 6HR MAX TEMP:  67;

TOMAHAWK       MOSUNNY   64  36  35 W3        29.93R
6HR MIN TEMP:  62; 6HR MAX TEMP:  67;

MEDFORD        MOSUNNY   62  39  42 W8        29.93F
6HR MIN TEMP:  58; 6HR MAX TEMP:  64;

MERRILL        SUNNY     63  39  42 SW8       29.94S
$$

WIZ029-030-035-036-043>047-060100-
CENTRAL WISCONSIN

CITY           SKY/WX    TMP DP  RH WIND       PRES   REMARKS
WAUSAU         SUNNY     66  37  34 W12       29.92S
6HR MIN TEMP:  62; 6HR MAX TEMP:  68;

MOSINEE        SUNNY     63  36  36 W9        29.95F
MARSHFIELD     MOSUNNY   65  37  35 W5        29.94S
6HR MIN TEMP:  61; 6HR MAX TEMP:  69;

STEVENS POINT  SUNNY     64  32  31 W5        29.94S
6HR MIN TEMP:  58; 6HR MAX TEMP:  64;

WAUPACA        SUNNY     67  28  22 W6        29.93F
6HR MIN TEMP:  63; 6HR MAX TEMP:  70;

WAUTOMA        SUNNY     67  28  23 NW8       29.94F
6HR MIN TEMP:  60; 6HR MAX TEMP:  69;

WISC RAPIDS    SUNNY     67  30  25 W6        29.95S
6HR MIN TEMP:  62; 6HR MAX TEMP:  69;

CAMP DOUGLAS   PTSUNNY   64  39  39 W9        29.94F
$$

WIZ011>013-019>022-031-037>040-048>050-060100-
NORTHEAST WISCONSIN

CITY           SKY/WX    TMP DP  RH WIND       PRES   REMARKS
ANTIGO         SUNNY     61  38  42 W9        29.93S
6HR MIN TEMP:  59; 6HR MAX TEMP:  65;

SHAWANO        SUNNY     69  29  23 W8        29.91S
6HR MIN TEMP:  61; 6HR MAX TEMP:  71;

OCONTO         CLEAR     60  38  45 S8        29.90F
6HR MIN TEMP:  53; 6HR MAX TEMP:  61;

STURGEON BAY   CLOUDY    54  37  54 SE9       29.95F
6HR MIN TEMP:  52; 6HR MAX TEMP:  59;

GREEN BAY      CLEAR     64  41  42 S7        29.92F
6HR MIN TEMP:  58; 6HR MAX TEMP:  66;

MANITOWOC      CLOUDY    51  38  60 SE8       29.96F
6HR MIN TEMP:  50; 6HR MAX TEMP:  54;

APPLETON       PTCLDY    61  36  39 S8        29.92F
CLINTONVILLE   SUNNY     66  32  28 W7        29.91F
OSHKOSH        CLEAR     61  40  45 SE6       29.94F
6HR MIN TEMP:  58; 6HR MAX TEMP:  64;

$$

WIZ032>034-041-042-053>061-060100-
SOUTHWEST WISCONSIN

CITY           SKY/WX    TMP DP  RH WIND       PRES   REMARKS
LA CROSSE      CLOUDY    70  36  28 CALM      29.94F
6HR MIN TEMP:  62; 6HR MAX TEMP:  71;

SPARTA         CLOUDY    66  37  34 W5        29.96S
6HR MIN TEMP:  62; 6HR MAX TEMP:  69;

VIROQUA        CLOUDY    65  35  32 W5        29.97F
6HR MIN TEMP:  60; 6HR MAX TEMP:  67;

BOSCOBEL       CLOUDY    69  32  25 NW3       29.96F
6HR MIN TEMP:  65; 6HR MAX TEMP:  71;

PRAIRIE DU CHI SUNNY     68  32  26 W7        29.96F
6HR MIN TEMP:  61; 6HR MAX TEMP:  69;

PLATTEVILLE    SUNNY     64  35  33 W5        29.98S
6HR MIN TEMP:  60; 6HR MAX TEMP:  67;

$$

WIZ056-057-062-063-064-067-068-060100-
SOUTH CENTRAL WISCONSIN

CITY           SKY/WX    TMP DP  RH WIND       PRES   REMARKS
REEDSBURG      SUNNY     64  34  33 W7        29.95S
6HR MIN TEMP:  60; 6HR MAX TEMP:  66;

BARABOO/DELLS  SUNNY     65  28  25 W6        29.95F
6HR MIN TEMP:  61; 6HR MAX TEMP:  68;

LONE ROCK      SUNNY     65  33  30 NW5       29.96F
6HR MIN TEMP:  62; 6HR MAX TEMP:  69;

MINERAL POINT  SUNNY     63  36  36 W8        29.97S
MADISON        PTSUNNY   65  32  29 W7        29.96S
6HR MIN TEMP:  60; 6HR MAX TEMP:  67;

MIDDLETON      SUNNY     64  32  30 NW5       29.97S
6HR MIN TEMP:  60; 6HR MAX TEMP:  68;

WATERTOWN      CLEAR     63  37  38 NW3       29.95S
6HR MIN TEMP:  59; 6HR MAX TEMP:  65;

MONROE         SUNNY     63  34  34 W8        29.97S
JANESVILLE     CLEAR     64  37  36 N6        29.96F
$$

WIZ051-052-058>065-066-070>072-060100-
SOUTHEAST WISCONSIN

CITY           SKY/WX    TMP DP  RH WIND       PRES   REMARKS
MILWAUKEE      MOCLDY    51  37  58 E3        29.98S
6HR MIN TEMP:  51; 6HR MAX TEMP:  55;

WAUKESHA       CLEAR     61  34  36 NW8       29.97S
MILWAUKEE/TIMM CLEAR     54  36  50 E5        29.98
RACINE         CLEAR     51  36  56 SE3       29.98F
6HR MIN TEMP:  51; 6HR MAX TEMP:  56;

BURLINGTON     CLEAR     63  33  32 NW8       29.96S
6HR MIN TEMP:  58; 6HR MAX TEMP:  65;

KENOSHA        CLEAR     52  38  58 E6        29.97F
6HR MIN TEMP:  52; 6HR MAX TEMP:  64;

FOND DU LAC    CLEAR     63  40  42 NE5       29.94F
6HR MIN TEMP:  57; 6HR MAX TEMP:  65;

SHEBOYGAN      CLEAR     54  39  57 SE5       29.96S
6HR MIN TEMP:  54; 6HR MAX TEMP:  59;

WEST BEND      CLEAR     55  39  54 SE8       29.96R
JUNEAU         CLEAR     63  36  36 W5        29.96S
6HR MIN TEMP:  56; 6HR MAX TEMP:  64;

$$

LSZ147-162-060100-
LAKE SUPERIOR

STATION/POSITION TIME  TEMP    WIND        PRES    WAVE
                       AIR SEA DIR/SP/G            HT/PER
                 (UTC) (F)     (DEG/KT/KT) (MB)    (FT/S)
W MID LAKE BUOY  2350   44 37  170/  8/  8 1009.9F   0
DEVILS ISLAND    0000   69     180/ 10/ 12 1008.6F
SAXON HARBOR     2300   73     220/  7/ 12 1010.2
$$

LMZ867-665-643>646-060100-
LAKE MICHIGAN

STATION/POSITION TIME  TEMP    WIND        PRES    WAVE
                       AIR SEA DIR/SP/G            HT/PER
                 (UTC) (F)     (DEG/KT/KT) (MB)    (FT/S)
CHAMBERS ISLAND  2300   58     150/  6/ 10 1013.2F
N MID LAKE BUOY  2350   41 39  200/  6/  6 1013.8F   0
NORTC1F1C2F2C3F3C4F4C5F5C6F6C7F7C8M1C9M2Ca!



USA.gov is the U.S. government's official web portal to all federal, state and local government web resources and services.